Austin Bergstrom, TX

10:12 PM CST on January 18, 2018 (GMT -0600)
Austin Bergstrom International

Weather History for KAUS - January, 2014

Change the Weather History Date:

Wednesday, January 22, 2014

  Actual Average Record
Temperature  
Mean Temperature 47 °F 49 °F  
Max Temperature 68 °F 62 °F 83 °F (1972)
Min Temperature 26 °F 37 °F 20 °F (2011)
Degree Days  
Heating Degree Days 18 16  
Month to date heating degree days 376 352  
Since 1 July heating degree days 1245 1099  
Cooling Degree Days 0 0  
Month to date cooling degree days 0 0  
Year to date cooling degree days 0 0  
Growing Degree Days 4 (Base 50)    
Moisture  
Dew Point 27 °F    
Average Humidity 49    
Maximum Humidity 78    
Minimum Humidity 19    
Precipitation  
Precipitation 0.00 in 0.07 in 2.44 in (2015)
Month to date precipitation 0.41 1.62  
Year to date precipitation 0.41 1.62  
Snow  
Snow 0.00 in - - ()
Month to date snowfall 0.0  
Since 1 July snowfall T  
Snow Depth 0.00 in    
Sea Level Pressure  
Sea Level Pressure 30.11 in    
Wind  
Wind Speed 7 mph (SSW)    
Max Wind Speed 18 mph    
Max Gust Speed 24 mph    
Visibility 10 miles    
Events      
T = Trace of Precipitation, MM = Missing Value Source: NWS Daily Summary

Daily Weather History Graph

Daily Weather History Graph

Search for Another Location

Airport or City:

Trip Planner

Search our weather history database for the weather conditions in past years. The results will help you decide how hot, cold, wet, or windy it might be!

Date:

Astronomy

Jan. 22, 2014 Rise Set
Actual Time 7:25 AM CST 5:58 PM CST
Civil Twilight 7:00 AM CST 6:24 PM CST
Nautical Twilight 6:31 AM CST 6:53 PM CST
Astronomical Twilight 6:02 AM CST 7:22 PM CST
Moon No Moon Rise 10:56 AM CST (1/22)
Length of Visible Light 11h 24m
Length of Day
10h 33m
Waning Gibbous, 65% of the Moon is Illuminated
Jan 22
Waning Gibbous
Jan 23
Last Quarter
Jan 30
New
Feb 6
First Quarter
Feb 14
Full

Hourly Weather History & Observations

Time (CST) Temp. Windchill Dew Point Humidity Pressure Visibility Wind Dir Wind Speed Gust Speed Precip Events Conditions
12:53 AM 36.0 °F 30.3 °F 27.0 °F 70% 30.23 in 10.0 mi WSW 6.9 mph - N/A   Clear
1:53 AM 37.0 °F 31.6 °F 25.0 °F 62% 30.22 in 10.0 mi West 6.9 mph - N/A   Clear
2:53 AM 32.0 °F 28.7 °F 25.0 °F 75% 30.20 in 10.0 mi SSW 3.5 mph - N/A   Clear
3:53 AM 28.0 °F - 23.0 °F 81% 30.19 in 10.0 mi Calm Calm - N/A   Clear
4:53 AM 30.9 °F - 24.1 °F 76% 30.18 in 10.0 mi Calm Calm - N/A   Clear
5:53 AM 33.1 °F 27.7 °F 25.0 °F 72% 30.18 in 10.0 mi SSW 5.8 mph - N/A   Clear
6:53 AM 32.0 °F 27.5 °F 23.0 °F 69% 30.18 in 10.0 mi SSW 4.6 mph - N/A   Clear
7:53 AM 37.0 °F 33.3 °F 25.0 °F 62% 30.19 in 10.0 mi SW 4.6 mph - N/A   Partly Cloudy
8:53 AM 45.0 °F 41.2 °F 28.9 °F 53% 30.19 in 10.0 mi South 6.9 mph - N/A   Partly Cloudy
9:53 AM 52.0 °F - 26.1 °F 37% 30.20 in 10.0 mi SSW 13.8 mph - N/A   Partly Cloudy
10:53 AM 57.9 °F - 28.0 °F 32% 30.18 in 10.0 mi SSW 13.8 mph 19.6 mph N/A   Partly Cloudy
11:53 AM 61.0 °F - 27.0 °F 27% 30.14 in 10.0 mi SSW 13.8 mph 21.9 mph N/A   Partly Cloudy
12:53 PM 64.0 °F - 25.0 °F 23% 30.10 in 10.0 mi SSW 15.0 mph 20.7 mph N/A   Scattered Clouds
1:53 PM 68.0 °F - 25.0 °F 20% 30.04 in 10.0 mi SSW 16.1 mph 23.0 mph N/A   Mostly Cloudy
2:53 PM 64.0 °F - 25.0 °F 23% 30.02 in 10.0 mi South 12.7 mph - N/A   Mostly Cloudy
3:53 PM 64.9 °F - 25.0 °F 22% 30.02 in 10.0 mi South 12.7 mph - N/A   Mostly Cloudy
4:53 PM 66.0 °F - 28.9 °F 25% 30.01 in 10.0 mi South 10.4 mph - N/A   Scattered Clouds
5:53 PM 61.0 °F - 25.0 °F 25% 30.01 in 10.0 mi SSE 5.8 mph - N/A   Scattered Clouds
6:53 PM 46.9 °F - 28.9 °F 50% 30.03 in 10.0 mi Calm Calm - N/A   Scattered Clouds
7:53 PM 45.0 °F - 30.0 °F 56% 30.03 in 10.0 mi Calm Calm - N/A   Scattered Clouds
8:53 PM 46.0 °F - 32.0 °F 58% 30.04 in 10.0 mi Calm Calm - N/A   Mostly Cloudy
9:53 PM 51.1 °F - 26.1 °F 38% 30.04 in 10.0 mi South 6.9 mph - N/A   Mostly Cloudy
10:53 PM 50.0 °F - 28.0 °F 43% 30.05 in 10.0 mi South 6.9 mph - N/A   Mostly Cloudy
11:53 PM 46.0 °F - 28.9 °F 51% 30.06 in 10.0 mi Calm Calm - N/A   Mostly Cloudy